PEGASUS DEB, 39320

Orbit data source: Space-Track

PEGASUS DEB, 39320 is space debris in LEO originally from a launch on Thu, 19 May 1994 UTC launched from the Air Force Western Test Range (AFWTR). Debris objects in space refer to the collection of defunct objects orbiting the Earth. Examples of debris include non-operational satellites, rocket bodies, and fragments generated from explosions, collisions, or faulty payload assembly.

Loading next visibility...
Identifier
39320, 1994-029AFF
Orbit
LEO
Country
Flag of USUS
Related business
Manufacturer
Unknown
Mission
Spacecraft
Bus & Motor
Unknown
Mass
Unknown
Launch date (UTC)
1994-05-19 (32 years ago)
Launch vehicle
Unknown
Launch site
Air Force Western Test Range (AFWTR)
Object type
Payload
Rocket body
Debris
Shape & HBR
Unknown shape, 0.1 m
Radar Cross Section
Small (<0.1 m²)

Expand to show TLE details & history
Last TLE update: 2 days ago

TLE from 2 days ago
0 PEGASUS DEB
1 39320U 94029AFF 26060.66996170  .00001641  00000-0  38486-3 0  9993
2 39320  81.7582 195.9461 0280046 327.6231  30.8028 14.32824076711860
Epoch: 2026-03-01T16:04Z
TLE epoch observation values (Epoch: 2026-03-01T16:04:44.690Z)
Latitude
-0.00003°
Longitude
155.28549°
Altitude
614.513 km
Speed
7.641 km/s
True Right ascension
13h 03m 47s
True Declination
0° 00' 00"
Sunlit
Object was in full shadow at epoch
Visualization orbit readout
Latitude
Unknown
Longitude
Unknown
Altitude
Unknown
Speed
Unknown
Apparent Right ascension
Unknown
Apparent Declination
Unknown
Sunlit
N/A
Visualization observer readout
Local Sidereal Time
22:12:46
Azimuth
Unknown
Elevation
Unknown
Doppler factor
Unknown
Orbital elements
Apogee altitude
979.867 km
Perigee altitude
578.978 km
Semi-major axis
7,157.56 km
Eccentricity
0.028
Inclination
81.7582°
RAAN
195.9461°
Arg. of periapsis
327.6231°
True anomaly
32.49676°
Mean anomaly
30.8028°
Eccentric anomaly
31.64462°
Mean motion
3.58423 °/min
Orbital period
100.44 mins
BSTAR
0.00038486
Loading maneuver chart data...
Computing Atmospheric mass density...

Documentation

Showing up to 5 results
|